Wheaton NDB, MN

8:56 PM CDT on July 20, 2017 (GMT -0500)
Wheaton Municipal

Weather History for KETH - December, 2013

Change the Weather History Date:

Wednesday, December 25, 2013

  Actual Average Record
Temperature  
Mean Temperature 26 °F -  
Max Temperature 33 °F 20 °F 46 °F (1999)
Min Temperature 19 °F 0 °F -25 °F (1996)
Degree Days  
Heating Degree Days 39    
Moisture  
Dew Point 20 °F    
Average Humidity 85    
Maximum Humidity 100    
Minimum Humidity 74    
Precipitation  
Precipitation 0.00 in - - ()
Sea Level Pressure  
Sea Level Pressure 30.10 in    
Wind  
Wind Speed 9 mph (West)    
Max Wind Speed 22 mph    
Max Gust Speed 26 mph    
Visibility 10 miles    
Events Snow    
Averages and records for this station are not official NWS values.
T = Trace of Precipitation, MM = Missing Value Source: NWS Daily Summary

Daily Weather History Graph

Daily Weather History Graph

Search for Another Location

Airport or City:

Trip Planner

Search our weather history database for the weather conditions in past years. The results will help you decide how hot, cold, wet, or windy it might be!

Date:

Astronomy

Dec. 25, 2013 Rise Set
Actual Time 8:06 AM CST 4:46 PM CST
Civil Twilight 7:31 AM CST 5:21 PM CST
Nautical Twilight 6:53 AM CST 5:59 PM CST
Astronomical Twilight 6:17 AM CST 6:35 PM CST
Moon 12:17 AM CST (12/25) 12:07 PM CST (12/25)
Length of Visible Light 9h 49m
Length of Day
8h 40m
Waning Gibbous, 48% of the Moon is Illuminated
Dec 25
Waning Gibbous
Jan 1
New
Jan 7
First Quarter
Jan 15
Full
Jan 23
Last Quarter

Hourly Weather History & Observations

Time (CST) Temp. Windchill Dew Point Humidity Pressure Visibility Wind Dir Wind Speed Gust Speed Precip Events Conditions
12:14 AM 21.2 °F 16.4 °F 19.4 °F 93% 30.05 in 10.0 mi South 3.5 mph - N/A   Overcast
12:34 AM 21.2 °F 11.7 °F 19.4 °F 93% 30.04 in 10.0 mi South 8.1 mph - N/A   Overcast
12:54 AM 23.0 °F 14.7 °F 19.4 °F 86% 30.03 in 10.0 mi South 6.9 mph - N/A   Overcast
1:14 AM 24.8 °F 16.9 °F 21.2 °F 86% 30.03 in 10.0 mi South 6.9 mph - N/A   Overcast
1:34 AM 24.8 °F 16.9 °F 21.2 °F 86% 30.01 in 10.0 mi South 6.9 mph - N/A   Overcast
1:54 AM 24.8 °F 15.3 °F 21.2 °F 86% 30.01 in 10.0 mi South 9.2 mph - N/A   Overcast
2:14 AM 24.8 °F 16.1 °F 21.2 °F 86% 30.01 in 7.0 mi South 8.1 mph - N/A Snow Light Snow
2:34 AM 26.6 °F 19.1 °F 23.0 °F 86% 30.01 in 10.0 mi SSW 6.9 mph - N/A   Overcast
2:54 AM 26.6 °F 19.1 °F 24.8 °F 93% 30.00 in 7.0 mi SSW 6.9 mph - N/A Snow Light Snow
3:14 AM 28.4 °F 21.2 °F 26.6 °F 93% 30.00 in 5.0 mi SW 6.9 mph - N/A Snow Light Snow
3:34 AM 28.4 °F 20.4 °F 28.4 °F 100% 30.00 in 7.0 mi WSW 8.1 mph - N/A Snow Light Snow
3:54 AM 30.2 °F 23.4 °F 28.4 °F 93% 30.00 in 10.0 mi West 6.9 mph - N/A Snow Light Snow
4:15 AM 32.0 °F 24.2 °F 28.4 °F 87% 30.00 in 10.0 mi West 9.2 mph - N/A   Overcast
4:34 AM 32.0 °F 23.0 °F 30.2 °F 93% 30.00 in 10.0 mi West 11.5 mph - N/A   Overcast
4:54 AM 33.8 °F 25.8 °F 30.2 °F 87% 30.00 in 10.0 mi West 10.4 mph - N/A   Overcast
5:14 AM 33.8 °F 26.4 °F 30.2 °F 87% 30.00 in 10.0 mi West 9.2 mph - N/A   Overcast
5:34 AM 33.8 °F 25.3 °F 30.2 °F 87% 30.01 in 10.0 mi West 11.5 mph - N/A   Overcast
5:54 AM 33.8 °F 25.3 °F 30.2 °F 87% 30.01 in 10.0 mi WNW 11.5 mph - N/A   Overcast
6:14 AM 33.8 °F 24.3 °F 30.2 °F 87% 30.02 in 10.0 mi WNW 13.8 mph - N/A   Overcast
6:34 AM 33.8 °F 23.9 °F 30.2 °F 87% 30.03 in 10.0 mi WNW 15.0 mph - N/A   Overcast
6:54 AM 33.8 °F 24.8 °F 30.2 °F 87% 30.04 in 10.0 mi WNW 12.7 mph 18.4 mph N/A   Overcast
7:14 AM 32.0 °F 20.5 °F 28.4 °F 87% 30.05 in 10.0 mi NNW 18.4 mph - N/A   Overcast
7:34 AM 30.2 °F 19.8 °F 26.6 °F 86% 30.06 in 10.0 mi NNW 13.8 mph 25.3 mph N/A   Overcast
7:54 AM 28.4 °F 16.6 °F 24.8 °F 86% 30.08 in 10.0 mi NNW 16.1 mph - N/A   Overcast
8:14 AM 26.6 °F 14.3 °F 24.8 °F 93% 30.09 in 7.0 mi NNW 16.1 mph 26.5 mph N/A   Overcast
8:34 AM 26.6 °F 15.2 °F 23.0 °F 86% 30.10 in 10.0 mi NNW 13.8 mph - N/A   Overcast
8:54 AM 24.8 °F 12.9 °F 21.2 °F 86% 30.13 in 10.0 mi NNW 13.8 mph - N/A   Mostly Cloudy
9:14 AM 23.0 °F 10.6 °F 19.4 °F 86% 30.14 in 10.0 mi NW 13.8 mph - N/A   Mostly Cloudy
9:34 AM 21.2 °F 5.2 °F 17.6 °F 86% 30.15 in 10.0 mi NW 21.9 mph 25.3 mph N/A   Scattered Clouds
9:54 AM 21.2 °F 6.0 °F 17.6 °F 86% 30.16 in 7.0 mi NW 19.6 mph 26.5 mph N/A   Clear
10:14 AM 21.2 °F 7.8 °F 15.8 °F 80% 30.17 in 10.0 mi NW 15.0 mph - N/A   Clear
10:34 AM 21.2 °F 7.8 °F 15.8 °F 80% 30.18 in 10.0 mi WNW 15.0 mph 25.3 mph N/A   Clear
10:54 AM 21.2 °F 6.8 °F 15.8 °F 80% 30.19 in 10.0 mi NW 17.3 mph 25.3 mph N/A   Clear
11:14 AM 21.2 °F 6.4 °F 14.0 °F 74% 30.18 in 10.0 mi WNW 18.4 mph 26.5 mph N/A   Scattered Clouds
11:34 AM 21.2 °F 5.6 °F 14.0 °F 74% 30.18 in 10.0 mi WNW 20.7 mph 25.3 mph N/A   Mostly Cloudy
11:54 AM 21.2 °F 5.6 °F 14.0 °F 74% 30.18 in 10.0 mi WNW 20.7 mph 25.3 mph N/A   Overcast
12:14 PM 21.2 °F 6.4 °F 14.0 °F 74% 30.17 in 10.0 mi WNW 18.4 mph 21.9 mph N/A   Overcast
12:34 PM 21.2 °F 5.6 °F 14.0 °F 74% 30.18 in 10.0 mi WNW 20.7 mph 26.5 mph N/A   Overcast
12:54 PM 21.2 °F 6.4 °F 14.0 °F 74% 30.18 in 10.0 mi WNW 18.4 mph 26.5 mph N/A   Overcast
1:14 PM 21.2 °F 7.8 °F 14.0 °F 74% 30.18 in 10.0 mi WNW 15.0 mph - N/A   Mostly Cloudy
1:34 PM 21.2 °F 9.5 °F 14.0 °F 74% 30.17 in 10.0 mi WNW 11.5 mph - N/A   Clear
1:54 PM 21.2 °F 8.9 °F 14.0 °F 74% 30.17 in 10.0 mi WNW 12.7 mph - N/A   Clear
2:14 PM 21.2 °F 10.1 °F 14.0 °F 74% 30.17 in 10.0 mi WNW 10.4 mph - N/A   Clear
2:34 PM 21.2 °F 10.1 °F 14.0 °F 74% 30.17 in 10.0 mi WNW 10.4 mph - N/A   Clear
2:54 PM 21.2 °F 12.6 °F 14.0 °F 74% 30.17 in 10.0 mi WNW 6.9 mph - N/A   Scattered Clouds
3:14 PM 21.2 °F 13.6 °F 14.0 °F 74% 30.17 in 10.0 mi West 5.8 mph - N/A   Clear
3:34 PM 19.4 °F 11.5 °F 14.0 °F 80% 30.17 in 10.0 mi WNW 5.8 mph - N/A   Clear
3:54 PM 19.4 °F 12.8 °F 15.8 °F 86% 30.18 in 10.0 mi WNW 4.6 mph - N/A   Mostly Cloudy
4:14 PM 19.4 °F - 15.8 °F 86% 30.17 in 10.0 mi Calm Calm - N/A   Mostly Cloudy
4:34 PM 19.4 °F - 15.8 °F 86% 30.17 in 10.0 mi Calm Calm - N/A   Scattered Clouds
4:54 PM 19.4 °F - 15.8 °F 86% 30.17 in 10.0 mi Calm Calm - N/A   Scattered Clouds
5:14 PM 19.4 °F - 15.8 °F 86% 30.17 in 10.0 mi Calm Calm - N/A   Overcast
5:34 PM 19.4 °F - 15.8 °F 86% 30.16 in 10.0 mi Calm Calm - N/A   Overcast
5:54 PM 19.4 °F - 15.8 °F 86% 30.16 in 10.0 mi Calm Calm - N/A   Overcast
6:14 PM 19.4 °F - 15.8 °F 86% 30.15 in 10.0 mi Calm Calm - N/A   Overcast
6:34 PM 19.4 °F - 15.8 °F 86% 30.15 in 10.0 mi Calm Calm - N/A   Overcast
6:54 PM 19.4 °F - 15.8 °F 86% 30.14 in 10.0 mi Calm Calm - N/A   Overcast
7:14 PM 19.4 °F 14.3 °F 17.6 °F 93% 30.13 in 10.0 mi SSE 3.5 mph - N/A   Overcast
7:34 PM 21.2 °F 13.6 °F 17.6 °F 86% 30.12 in 10.0 mi SSE 5.8 mph - N/A   Overcast
7:54 PM 21.2 °F 12.6 °F 17.6 °F 86% 30.11 in 10.0 mi South 6.9 mph - N/A   Overcast
8:14 PM 23.0 °F 17.0 °F 19.4 °F 86% 30.10 in 10.0 mi SSE 4.6 mph - N/A   Overcast
8:34 PM 23.0 °F 17.0 °F 19.4 °F 86% 30.10 in 10.0 mi South 4.6 mph - N/A   Overcast
8:54 PM 24.8 °F 16.9 °F 21.2 °F 86% 30.09 in 10.0 mi South 6.9 mph - N/A   Overcast
9:14 PM 24.8 °F 16.1 °F 21.2 °F 86% 30.08 in 10.0 mi South 8.1 mph - N/A   Overcast
9:34 PM 24.8 °F 19.1 °F 21.2 °F 86% 30.08 in 10.0 mi SSW 4.6 mph - N/A   Overcast
9:54 PM 26.6 °F 20.0 °F 23.0 °F 86% 30.08 in 10.0 mi SW 5.8 mph - N/A   Overcast
10:14 PM 26.6 °F 20.0 °F 23.0 °F 86% 30.07 in 10.0 mi SW 5.8 mph - N/A   Overcast
10:27 PM 28.4 °F 20.4 °F 24.8 °F 86% 30.07 in 10.0 mi WSW 8.1 mph - N/A   Overcast
10:54 PM 28.4 °F 24.6 °F 24.8 °F 86% 30.06 in 10.0 mi West 3.5 mph - N/A   Overcast
11:14 PM 28.4 °F - 24.8 °F 86% 30.06 in 10.0 mi Calm Calm - N/A   Overcast
11:34 PM 26.6 °F 21.2 °F 23.0 °F 86% 30.06 in 10.0 mi West 4.6 mph - N/A   Scattered Clouds
11:47 PM 26.6 °F 21.2 °F 23.0 °F 86% 30.06 in 10.0 mi WSW 4.6 mph - N/A   Scattered Clouds